Grand Island, NE

3:35 PM CDT on August 27, 2016 (GMT -0500)
Central Nebraska Regional

Weather History for KGRI - October, 2010

Change the Weather History Date:

Wednesday, October 27, 2010

  Actual Average Record
Temperature  
Mean Temperature 43 °F 48 °F  
Max Temperature 55 °F 60 °F 89 °F (1922)
Min Temperature 31 °F 36 °F 9 °F (1997)
Degree Days  
Heating Degree Days 22 17  
Month to date heating degree days 224 334  
Since 1 July heating degree days 286 449  
Cooling Degree Days 0 0  
Month to date cooling degree days 9 10  
Year to date cooling degree days 1139 1033  
Moisture  
Dew Point 25 °F    
Average Humidity 48    
Maximum Humidity 69    
Minimum Humidity 26    
Precipitation  
Precipitation T in 0.04 in 0.73 in (1897)
Month to date precipitation 0.30 1.67  
Year to date precipitation 28.61 24.67  
Snow  
Snow 0.00 in 0.00 in 6.60 in (1980)
Month to date snowfall 0.0 0.7  
Since 1 July snowfall 0.0 0.8  
Since 1 September snowfall 0.0 0.8  
Snow Depth 0.00 in    
Sea Level Pressure  
Sea Level Pressure 29.87 in    
Wind  
Wind Speed 19 mph (WNW)    
Max Wind Speed 44 mph    
Max Gust Speed 55 mph    
Visibility 10 miles    
Events      
T = Trace of Precipitation, MM = Missing Value Source: NWS Daily Summary

Daily Weather History Graph

Daily Weather History Graph

Search for Another Location

Airport or City:

Trip Planner

Search our weather history database for the weather conditions in past years. The results will help you decide how hot, cold, wet, or windy it might be!

Date:

Astronomy

Oct. 27, 2010 Rise Set
Actual Time 7:58 AM CDT 6:35 PM CDT
Civil Twilight 7:29 AM CDT 7:03 PM CDT
Nautical Twilight 6:57 AM CDT 7:35 PM CDT
Astronomical Twilight 6:25 AM CDT 8:07 PM CDT
Moon 9:58 PM CDT 12:35 PM CDT
Length of Visible Light 11h 33m
Length of Day
10h 37m
Waning Gibbous, 79% of the Moon is Illuminated
Oct 27
Waning Gibbous
Oct 30
Last Quarter
Nov 5
New
Nov 13
First Quarter
Nov 21
Full

Hourly Weather History & Observations

Time (CDT) Temp. Windchill Dew Point Humidity Pressure Visibility Wind Dir Wind Speed Gust Speed Precip Events Conditions
12:53 AM 43.0 °F 36.0 °F 28.9 °F 58% 29.57 in 10.0 mi West 13.8 mph - N/A   Clear
1:53 AM 43.0 °F 36.0 °F 28.9 °F 58% 29.60 in 10.0 mi WSW 13.8 mph - N/A   Clear
2:53 AM 44.1 °F 36.8 °F 28.0 °F 53% 29.60 in 10.0 mi West 16.1 mph - N/A   Clear
3:53 AM 44.1 °F 36.8 °F 28.0 °F 53% 29.61 in 10.0 mi West 16.1 mph - N/A   Clear
4:53 AM 42.1 °F 33.3 °F 28.0 °F 58% 29.62 in 10.0 mi WSW 19.6 mph - N/A   Clear
5:53 AM 39.0 °F 29.6 °F 28.0 °F 65% 29.64 in 10.0 mi WSW 18.4 mph - N/A   Clear
6:53 AM 39.0 °F 29.3 °F 27.0 °F 62% 29.66 in 10.0 mi WSW 19.6 mph - N/A   Clear
7:53 AM 39.9 °F 30.0 °F 27.0 °F 60% 29.69 in 10.0 mi West 21.9 mph 29.9 mph N/A   Clear
8:53 AM 44.1 °F 35.0 °F 26.1 °F 49% 29.72 in 10.0 mi West 24.2 mph 31.1 mph N/A   Clear
9:53 AM 48.0 °F - 26.1 °F 42% 29.75 in 10.0 mi West 21.9 mph 32.2 mph N/A   Clear
10:53 AM 51.1 °F - 23.0 °F 33% 29.77 in 10.0 mi WNW 32.2 mph 54.1 mph N/A   Clear
11:53 AM 52.0 °F - 23.0 °F 32% 29.80 in 10.0 mi WNW 32.2 mph 44.9 mph 0.00 in   Scattered Clouds
12:53 PM 54.0 °F - 19.0 °F 25% 29.84 in 10.0 mi WNW 31.1 mph 47.2 mph N/A   Scattered Clouds
1:53 PM 52.0 °F - 19.9 °F 28% 29.87 in 10.0 mi WNW 29.9 mph 39.1 mph N/A   Scattered Clouds
2:53 PM 52.0 °F - 19.9 °F 28% 29.89 in 10.0 mi NW 29.9 mph 39.1 mph N/A   Overcast
3:53 PM 48.9 °F - 25.0 °F 39% 29.96 in 10.0 mi NW 24.2 mph 36.8 mph N/A   Overcast
4:53 PM 45.0 °F 35.2 °F 26.1 °F 48% 30.03 in 10.0 mi NW 29.9 mph 42.6 mph N/A   Scattered Clouds
5:53 PM 44.1 °F 35.2 °F 27.0 °F 51% 30.08 in 10.0 mi NW 23.0 mph 34.5 mph N/A   Overcast
6:53 PM 42.1 °F 35.2 °F 24.1 °F 49% 30.12 in 10.0 mi NNW 12.7 mph 23.0 mph N/A   Mostly Cloudy
7:53 PM 41.0 °F 37.1 °F 26.1 °F 55% 30.15 in 10.0 mi NW 5.8 mph - N/A   Overcast
8:53 PM 37.9 °F 35.5 °F 26.1 °F 62% 30.19 in 10.0 mi West 3.5 mph - N/A   Clear
9:53 PM 34.0 °F 28.0 °F 25.0 °F 70% 30.21 in 10.0 mi WSW 6.9 mph - N/A   Clear
10:53 PM 35.1 °F 27.9 °F 23.0 °F 61% 30.23 in 10.0 mi WNW 9.2 mph - N/A   Clear
11:53 PM 33.1 °F 26.9 °F 23.0 °F 66% 30.26 in 10.0 mi NW 6.9 mph - N/A   Clear